CW4778 Auckland NZ current weather conditions

sailwx.info

Wind from 020

Air temperature 20.6° C
Dewpoint 20.4° C

Last reported at 2018-Jan-22 18:08 UTC.
Time now 2018-Jan-22 18:39 UTC

Location: S 36°52' E 174°44'.
View on Google Maps.

See reports from other nearby stations

  
Tides and Currents Weather Stations Pressure Air Temp Water Temp Dewpoint Dewpoint Depression Visibility Wind Speed Wind Dir Waves Ship Positions
date/time (UTC)wind fromknots sea level pressurealtimeterstation pressurevisibilityair tempwater tempwave heightnotes
2018-Jan-22 18:08 020 20.6
2018-Jan-22 17:58 037 20.6
2018-Jan-22 17:38 025 20.6
2018-Jan-22 17:28 022 20.6
2018-Jan-22 17:18 024 20.6
2018-Jan-22 16:58 024 20.6
2018-Jan-22 16:48 024 20.6
2018-Jan-22 16:38 025 1 gusting 5 20.6
2018-Jan-22 16:18 044 20.6
2018-Jan-22 16:08 040 20.6
2018-Jan-22 15:58 016 0 gusting 1 20.6
2018-Jan-22 15:48 017 20.6
2018-Jan-22 15:38 019 20.6
2018-Jan-22 15:28 018 20.6
2018-Jan-22 15:18 018 20.6
2018-Jan-22 14:58 019 20.6
2018-Jan-22 14:48 018 20.6
2018-Jan-22 14:38 016 20.6
2018-Jan-22 14:18 014 20.6
2018-Jan-22 14:08 015 0 gusting 6 20.6
2018-Jan-22 13:58 023 2 gusting 6 20.6
2018-Jan-22 13:48 023 1 gusting 5 21.1
2018-Jan-22 13:28 079 0 gusting 4 21.1
2018-Jan-22 13:08 020 21.1
2018-Jan-22 12:58 008 21.1
2018-Jan-22 12:38 008 21.1
2018-Jan-22 12:28 018 0 gusting 4 21.1
2018-Jan-22 11:58 038 0 gusting 1 21.1
2018-Jan-22 11:48 036 21.1
2018-Jan-22 11:38 049 0 gusting 4 21.1
2018-Jan-22 11:18 031 21.1
2018-Jan-22 11:08 027 21.1
2018-Jan-22 10:58 013 21.1
2018-Jan-22 10:48 019 0 gusting 5 21.7
2018-Jan-22 10:38 037 2 gusting 5 21.7
2018-Jan-22 10:28 029 0 gusting 4 21.1
2018-Jan-22 09:58 036 2 gusting 6 21.1
2018-Jan-22 09:48 035 0 gusting 5 21.1
2018-Jan-22 09:38 023 1 gusting 6 21.1
2018-Jan-22 09:18 039 21.1
2018-Jan-22 09:08 042 0 gusting 1 21.1
2018-Jan-22 08:28 015 0 gusting 5 21.7
2018-Jan-22 08:18 011 4 gusting 6 21.7
2018-Jan-22 07:28 031 21.7
2018-Jan-22 07:08 044 21.7
2018-Jan-22 06:58 010 21.7
2018-Jan-22 06:18 020 0 gusting 5 21.7
2018-Jan-22 05:48 035 2 gusting 6 22.2
2018-Jan-22 05:38 021 4 gusting 7 22.2
2018-Jan-22 05:28 020 0 gusting 6 22.2
2018-Jan-22 05:18 034 1 gusting 6 22.2
2018-Jan-22 05:08 009 1 gusting 5 22.2
2018-Jan-22 04:58 029 21.7
2018-Jan-22 04:48 028 0 gusting 4 22.2
2018-Jan-22 04:38 045 22.2
2018-Jan-22 04:08 015 1 gusting 6 22.8
2018-Jan-22 03:58 041 1 gusting 8 22.2
2018-Jan-22 03:48 020 6 gusting 8 22.8
2018-Jan-22 03:18 084 4 gusting 7 22.8
2018-Jan-22 03:08 025 6 gusting 10 22.8
2018-Jan-22 02:58 029 5 gusting 8 23.3
2018-Jan-22 02:48 063 3 gusting 8 23.9
2018-Jan-22 02:38 050 5 gusting 7 23.9
2018-Jan-22 02:18 051 4 gusting 11 24.4
2018-Jan-22 01:58 007 5 gusting 10 24.4
2018-Jan-22 01:48 045 5 gusting 7 24.4
2018-Jan-22 01:38 001 1 gusting 10 23.9
2018-Jan-22 01:28 064 7 gusting 11 23.9
2018-Jan-22 01:18 036 6 gusting 8 23.9
2018-Jan-22 00:48 013 8 gusting 13 24.4
2018-Jan-22 00:38 024 6 gusting 13 23.9
2018-Jan-22 00:18 013 6 gusting 12 23.9
2018-Jan-22 00:08 006 9 gusting 11 23.9
2018-Jan-21 23:48 015 7 gusting 12 23.3
2018-Jan-21 23:38 029 7 gusting 11 23.3
2018-Jan-21 23:18 040 7 gusting 12 23.3
2018-Jan-21 23:08 031 6 gusting 13 22.8
2018-Jan-21 22:58 027 8 gusting 13 22.8
2018-Jan-21 22:28 012 7 gusting 12 22.8
2018-Jan-21 21:58 022 3 gusting 7 21.7
2018-Jan-21 21:48 022 3 gusting 6 21.1
2018-Jan-21 21:38 348 2 gusting 7 21.1
2018-Jan-21 21:28 029 5 gusting 10 21.1
2018-Jan-21 21:18 015 4 gusting 6 20.6
2018-Jan-21 21:08 055 4 gusting 6 20.0
2018-Jan-21 20:58 033 0 gusting 4 20.0
2018-Jan-21 20:38 046 19.4
2018-Jan-21 20:28 051 18.9
2018-Jan-21 20:18 094 0 gusting 10 18.3
2018-Jan-21 19:58 346 4 gusting 6 18.9
2018-Jan-21 19:18 357 2 gusting 7 20.0
2018-Jan-21 18:48 006 1 gusting 5 19.4
2018-Jan-21 18:08 354 2 gusting 6 18.9
2018-Jan-21 17:58 017 6 gusting 8 19.4
2018-Jan-21 17:48 015 2 gusting 6 19.4
2018-Jan-21 17:38 028 4 gusting 6 19.4
2018-Jan-21 17:28 047 0 gusting 1 19.4
2018-Jan-21 17:18 057 0 gusting 4 19.4
2018-Jan-21 16:58 074 18.9
2018-Jan-21 16:48 056 19.4
2018-Jan-21 16:38 021 0 gusting 5 19.4
2018-Jan-21 16:28 033 0 gusting 4 19.4
2018-Jan-21 16:18 339 19.4
2018-Jan-21 16:08 340 19.4
2018-Jan-21 15:58 340 19.4
2018-Jan-21 15:48 341 19.4
2018-Jan-21 15:38 339 19.4
2018-Jan-21 15:28 339 20.0
2018-Jan-21 15:18 340 20.0
2018-Jan-21 15:08 340 20.0
2018-Jan-21 14:58 340 20.0
2018-Jan-21 14:18 021 0 gusting 6 20.0
2018-Jan-21 14:08 026 0 gusting 2 20.6
2018-Jan-21 13:58 038 20.6
2018-Jan-21 13:48 033 0 gusting 1 20.0
2018-Jan-21 13:28 056 0 gusting 6 20.0
2018-Jan-21 13:18 042 4 gusting 8 20.0
2018-Jan-21 13:08 024 4 gusting 12 20.0
2018-Jan-21 12:18 026 1 gusting 7 20.6
2018-Jan-21 12:08 053 1 gusting 7 20.0
2018-Jan-21 11:38 005 7 gusting 12 21.7
2018-Jan-21 10:58 012 5 gusting 10 21.7
2018-Jan-21 10:48 009 5 gusting 7 21.7
2018-Jan-21 10:28 014 4 gusting 8 22.2
2018-Jan-21 10:18 019 6 gusting 11 22.2
2018-Jan-21 10:08 017 5 gusting 11 22.2
2018-Jan-21 09:38 018 4 gusting 10 22.2
2018-Jan-21 09:28 015 3 gusting 10 22.2
2018-Jan-21 09:08 010 5 gusting 12 22.2
2018-Jan-21 08:58 017 6 gusting 11 22.2
2018-Jan-21 08:38 020 5 gusting 12 22.2
2018-Jan-21 08:28 356 6 gusting 13 22.2
2018-Jan-21 08:08 016 8 gusting 14 22.2
2018-Jan-21 07:58 358 8 gusting 13 22.2
2018-Jan-21 07:48 009 8 gusting 14 22.2
2018-Jan-21 07:18 356 5 gusting 12 22.8
2018-Jan-21 07:08 009 8 gusting 12 22.8
2018-Jan-21 06:58 026 7 gusting 13 22.8
2018-Jan-21 06:18 011 7 gusting 13 22.8
2018-Jan-21 06:08 011 7 gusting 13 22.8
2018-Jan-21 05:58 023 7 gusting 12 23.3
2018-Jan-21 05:38 011 8 gusting 13 23.3
2018-Jan-21 05:18 007 11 gusting 15 23.3
2018-Jan-21 04:48 001 7 gusting 13 23.9
2018-Jan-21 04:38 352 11 gusting 14 23.9
2018-Jan-21 04:28 014 12 gusting 15 24.4
2018-Jan-21 04:18 023 6 gusting 14 23.9
2018-Jan-21 03:48 022 8 gusting 13 25.0
2018-Jan-21 03:28 033 12 gusting 14 24.4
2018-Jan-21 02:48 022 8 gusting 15 25.0
2018-Jan-21 02:38 007 13 gusting 18 25.0
2018-Jan-21 02:18 016 6 gusting 13 25.6
2018-Jan-21 01:28 353 10 gusting 13 26.7
2018-Jan-21 01:18 025 10 gusting 15 26.1
2018-Jan-21 00:58 018 9 gusting 14 26.7
2018-Jan-21 00:48 008 7 gusting 12 26.7
2018-Jan-21 00:38 054 7 gusting 13 26.7
2018-Jan-21 00:28 058 6 gusting 11 26.1
2018-Jan-21 00:18 024 4 gusting 11 25.6
2018-Jan-20 23:58 022 9 gusting 13 26.7
2018-Jan-20 23:28 062 4 gusting 13 26.1
2018-Jan-20 23:18 026 6 gusting 14 26.1
2018-Jan-20 22:38 039 6 gusting 12 25.0
2018-Jan-20 22:18 054 4 gusting 11 25.6
2018-Jan-20 22:08 029 8 gusting 13 25.0
2018-Jan-20 21:28 050 6 gusting 13 25.0
2018-Jan-20 21:08 037 6 gusting 10 23.9
2018-Jan-20 20:58 023 2 gusting 11 23.9
2018-Jan-20 20:48 019 7 gusting 10 23.3
2018-Jan-20 20:38 054 5 gusting 12 22.8
2018-Jan-20 20:18 029 3 gusting 10 22.8
2018-Jan-20 19:58 042 4 gusting 7 22.2
2018-Jan-20 19:38 039 4 gusting 6 22.2
2018-Jan-20 19:28 358 3 gusting 7 21.7
2018-Jan-20 19:08 041 1 gusting 7 21.7
2018-Jan-20 18:58 028 0 gusting 6 21.7
2018-Jan-20 18:48 025 1 gusting 6 21.7
2018-Jan-20 18:38 017 21.7
2018-Jan-20 18:28 008 21.1
2018-Jan-20 18:18 008 0 gusting 1 21.1
2018-Jan-20 18:08 007 21.1